User: anonymous   Login
Location: Estes Park
(40.3770°N, 105.5210°W)
Time: 11:41:36
(UTC-07:00)
Language:

N. Korean satellite - Orbit

View from above orbital plane
View from above orbital plane
View from above satellite
View from above satellite

Ground track
Ground track

The orbit data is extracted from the following two-line orbital elements,

1 39026U 12072A   18053.96995263 +.00001439 +00000-0 +56842-4 0  9994
2 39026 097.2146 068.2251 0039909 010.9732 349.2368 15.26383422288174
Epoch (UTC): 22 February 2018 23:16:43
Eccentricity: 0.0039909
inclination: 97.2146°
perigee height: 459 km
apogee height: 514 km
right ascension of ascending node: 68.2251°
argument of perigee: 10.9732°
revolutions per day: 15.26383422
mean anomaly at epoch: 349.2368°
orbit number at epoch: 28817

The dashed part of the orbit path shows where the satellite is in the earth's shadow,  

DLR